Wind_Speed
9 9 9 8 7 7 6 6 6 7 7 7 7 7 7 7 7 7 6 6 6 6 6 6 5 5 5 6 6 6 6 6 6 6 5 5 5 5 5 5 5 5 5
10 10 9 9 8 8 7 6 6 6 6 6 6 5 5 5 5 5 5 5 5 4 4 4 4 4 4 4 4 5 5 5 5 5 4 4 4 4 4 4 4 4 4
10 10 10 9 9 9 8 7 6 5 5 5 4 4 4 4 4 3 3 3 3 3 3 3 3 2 2 2 3 3 4 4 4 4 4 3 3 3 3 3 3 3 4
11 11 10 10 9 9 9 8 7 6 5 4 3 3 3 2 2 2 1 1 1 1 1 1 1 1 1 1 1 1 2 2 3 3 3 3 3 3 3 3 3 3 3
12 11 11 10 10 10 9 8 7 6 5 4 3 2 2 2 1 1 0 1 1 1 1 1 1 1 1 1 1 1 1 1 2 2 2 2 3 3 3 3 3 3 3
13 12 11 11 11 10 10 8 7 6 5 4 4 3 3 2 2 2 2 2 2 2 2 2 2 2 2 2 2 2 2 2 2 2 2 2 3 4 4 4 4 4 4
13 12 12 12 11 11 10 8 7 6 6 5 5 4 4 4 4 4 4 4 3 3 3 4 4 4 4 3 3 4 4 4 3 3 4 4 4 5 5 5 5 5 5
13 13 12 12 12 11 10 9 8 7 7 6 6 5 5 6 5 5 5 5 6 5 5 5 5 5 5 6 5 5 5 5 5 5 5 6 6 6 6 6 7 7 6
14 14 13 13 12 12 11 10 9 8 8 7 7 6 6 6 6 6 6 7 7 7 7 7 7 7 7 7 8 8 8 7 7 7 7 8 8 8 8 8 8 8 8
15 15 14 14 13 12 11 10 9 9 8 8 8 8 7 8 8 8 8 8 8 8 8 9 9 8 8 8 9 9 10 9 9 9 9 9 9 9 9 10 10 10 10
15 16 16 15 14 13 12 11 11 10 9 9 9 9 9 8 9 9 9 9 9 9 9 9 9 9 9 9 9 9 10 10 11 12 11 11 11 11 11 11 11 12 12
17 18 18 17 15 13 13 12 12 11 11 10 10 9 9 9 10 10 10 9 9 9 9 10 10 9 9 9 9 10 10 11 12 13 13 12 12 12 12 13 13 13 14
20 20 19 17 15 14 13 13 12 11 11 10 10 10 10 10 10 9 10 10 10 9 10 10 10 9 8 8 8 9 10 11 12 13 14 14 14 14 14 14 15 15 15
22 21 20 18 16 15 14 13 13 11 11 11 11 10 10 9 9 9 9 9 9 9 10 10 9 8 8 8 8 9 10 11 12 12 14 15 15 15 16 16 16 16 17
23 22 22 20 18 16 15 14 13 12 11 10 10 9 9 9 8 8 9 9 9 9 9 9 9 8 9 9 9 9 10 11 12 13 14 15 16 16 17 18 17 17 17
24 23 22 21 18 17 15 15 13 12 10 9 9 8 8 8 8 8 8 8 8 8 8 8 8 8 9 9 9 10 10 11 12 13 14 15 16 17 17 18 18 18 18
25 24 22 21 19 17 16 15 13 11 9 9 8 8 7 7 7 7 7 7 7 7 7 8 8 8 9 9 10 10 11 12 13 13 13 14 16 16 17 18 18 18 18
25 24 22 21 20 18 16 13 11 10 8 7 7 6 6 6 6 6 6 6 6 6 6 6 7 8 9 10 10 10 11 12 12 13 14 14 15 16 17 18 19 19 19
25 24 22 20 19 18 15 12 10 9 8 6 6 5 5 5 5 5 5 5 5 6 6 7 7 8 8 8 9 10 11 11 12 13 14 14 15 16 17 17 18 19 19
22 22 21 19 18 16 13 12 10 8 7 6 5 4 4 4 4 4 4 5 5 5 5 6 7 7 7 8 8 8 9 10 11 11 13 14 15 15 16 18 18 18 19
21 21 20 18 16 15 13 11 10 8 7 5 4 4 4 3 3 3 3 3 3 3 4 5 6 7 7 7 7 8 8 8 9 10 11 13 14 14 15 16 18 19 20
19 19 19 17 16 14 12 11 9 8 7 5 4 4 3 3 2 2 2 1 2 2 3 4 6 6 7 7 8 8 8 8 9 10 11 12 13 14 15 16 17 18 20
17 17 17 16 15 13 11 10 9 8 7 6 5 4 4 3 2 1 0 1 1 2 3 5 6 7 7 8 8 8 9 9 10 11 12 12 13 14 15 16 17 18 20
14 15 15 15 15 13 11 10 9 8 7 6 6 5 4 3 2 1 0 0 1 2 3 5 6 7 8 8 9 9 10 10 11 12 12 13 14 15 16 17 18 19 20
13 14 15 15 14 13 12 11 9 8 7 7 6 6 5 4 3 2 1 0 1 2 3 5 6 8 9 10 10 11 11 11 12 13 13 14 14 15 17 18 19 20 21
12 13 13 14 13 12 11 11 10 9 8 8 7 6 5 4 4 3 2 2 2 3 4 6 7 8 10 11 12 12 13 13 14 15 15 16 16 17 18 19 20 21 22
Wind_Direction
183 179 181 181 185 185 185 179 167 154 144 134 125 118 111 103 95 88 84 80 78 76 76 74 73 73 75 76 74 74 76 79 82 88 95 104 112 118 119 121 123 121 119
189 184 185 188 191 196 197 192 179 165 155 144 133 125 116 107 98 88 81 77 76 75 77 79 78 76 76 78 77 78 82 85 88 93 101 109 118 121 127 130 131 130 130
196 191 189 192 195 199 201 200 193 181 170 159 147 134 121 111 105 94 83 75 73 75 76 77 79 79 82 85 81 79 85 94 98 99 110 119 124 131 136 140 139 140 141
203 202 196 196 200 204 206 207 205 197 185 175 166 154 139 130 123 108 83 63 56 57 65 62 64 66 77 94 93 83 94 109 115 115 121 135 144 150 152 155 155 159 158
209 207 203 203 206 209 211 211 213 209 200 193 193 191 187 189 189 197 333 9 338 334 334 328 318 298 296 253 225 204 162 159 149 146 148 158 170 172 170 170 175 179 182
213 211 208 209 212 212 214 216 219 218 213 211 218 226 234 239 256 263 278 290 296 301 298 294 287 276 270 257 245 236 218 207 197 185 184 192 195 192 187 186 189 193 196
213 212 211 212 215 216 217 220 220 223 223 228 239 247 251 255 265 271 276 278 281 287 287 287 277 269 262 252 251 245 236 232 224 218 211 210 209 207 203 198 198 201 202
214 212 213 214 216 219 222 222 226 230 234 239 248 259 264 267 270 273 278 282 280 278 279 282 278 274 265 258 254 250 245 241 236 233 228 223 221 219 216 210 207 208 209
213 211 214 215 217 222 226 229 232 237 242 248 257 265 270 273 276 277 280 284 285 284 280 279 279 278 270 263 256 254 251 246 241 239 236 232 231 227 224 221 216 214 214
214 210 214 215 217 222 225 230 237 242 249 257 262 268 272 277 280 282 282 285 288 287 284 278 279 276 273 270 265 257 255 252 245 242 241 240 238 234 230 227 224 221 219
213 212 215 216 220 223 227 232 239 244 250 256 262 269 275 279 282 283 283 284 286 287 286 282 279 272 273 271 269 262 259 256 253 248 244 243 242 239 235 233 230 227 225
214 213 214 219 223 225 228 233 240 246 251 257 262 270 275 278 280 282 283 287 290 289 288 288 284 273 273 273 268 262 259 259 260 255 247 244 243 241 240 237 234 231 227
215 214 215 219 221 225 230 234 241 248 253 258 265 272 278 283 282 285 289 293 296 295 294 293 286 282 279 276 273 267 263 265 263 258 249 245 246 244 244 242 241 236 230
214 214 215 218 221 228 234 236 241 247 251 257 265 272 276 280 285 291 289 295 299 298 299 299 294 289 285 282 277 272 267 267 265 262 254 248 250 250 247 244 244 242 236
211 213 215 219 224 231 235 238 239 246 250 258 265 270 276 282 289 292 292 293 296 297 297 296 293 294 293 286 279 274 272 268 267 263 259 252 251 251 250 247 245 245 240
210 210 214 219 225 230 234 236 239 245 247 256 267 271 277 286 290 293 292 290 294 298 295 293 296 296 291 288 283 278 277 275 270 267 263 257 256 254 253 250 247 247 244
209 211 215 219 225 228 232 236 240 241 249 257 267 275 280 287 291 297 296 295 298 301 297 296 297 297 295 292 288 283 279 276 273 269 266 262 260 256 252 252 250 250 248
210 212 218 221 225 227 231 232 234 240 248 256 268 273 283 291 291 293 296 296 298 302 302 303 307 306 302 298 293 288 283 277 276 273 271 268 265 257 254 254 252 252 250
208 213 217 219 222 226 227 225 228 231 234 244 261 271 281 282 280 286 295 298 299 300 303 309 312 312 308 303 298 294 287 282 278 275 273 271 271 262 255 253 253 252 252
209 214 214 216 219 218 216 218 222 223 233 246 257 270 274 272 277 286 292 294 301 309 316 320 320 321 320 314 309 304 295 291 286 282 278 274 275 270 260 255 253 253 253
206 208 211 212 214 212 215 216 219 223 233 240 247 253 254 251 263 283 290 295 307 322 325 330 331 331 330 326 321 318 311 303 296 290 286 282 278 276 270 263 259 256 255
201 202 206 209 209 209 211 214 219 221 226 231 231 235 232 232 245 266 293 309 318 328 332 340 342 343 343 337 329 323 317 308 302 296 291 286 283 280 277 271 267 263 261
200 202 204 203 204 205 209 213 218 218 220 219 219 219 217 214 217 220 266 346 342 344 348 351 351 351 348 343 339 331 322 313 306 300 295 290 286 283 280 276 273 269 266
197 200 201 200 202 206 210 214 216 216 216 215 212 210 208 203 195 186 160 16 0 356 356 353 353 352 348 343 338 333 327 319 314 308 301 294 289 286 282 278 276 272 269
194 197 199 202 204 207 209 212 216 219 219 213 208 205 204 199 192 187 190 271 340 350 350 349 348 346 343 340 336 332 327 321 317 313 308 302 296 292 288 284 280 276 271
193 198 201 203 203 205 211 215 218 217 214 211 208 207 205 203 201 205 227 266 304 327 335 339 339 339 339 337 334 331 326 323 319 315 310 306 301 296 291 287 284 279 275
Height
5907 5907 5908 5908 5909 5909 5910 5910 5910 5910 5910 5910 5910 5911 5911 5911 5911 5911 5911 5911 5911 5911 5911 5911 5911 5910 5910 5909 5908 5908 5907 5907 5906 5906 5905 5905 5905 5905 5905 5904 5904 5904 5904
5906 5906 5907 5908 5909 5909 5910 5910 5910 5910 5910 5910 5910 5910 5911 5911 5911 5911 5911 5911 5911 5911 5911 5911 5911 5910 5910 5910 5909 5908 5908 5907 5907 5906 5906 5906 5905 5905 5905 5905 5905 5905 5905
5905 5905 5906 5907 5908 5909 5909 5910 5910 5910 5910 5910 5910 5910 5910 5910 5910 5911 5911 5911 5911 5911 5911 5911 5910 5910 5910 5910 5909 5909 5908 5908 5907 5907 5906 5906 5906 5906 5906 5906 5906 5906 5906
5903 5904 5905 5906 5907 5908 5908 5909 5909 5909 5909 5909 5909 5909 5910 5910 5910 5910 5911 5911 5910 5910 5910 5910 5910 5910 5909 5909 5909 5909 5908 5908 5907 5907 5907 5906 5906 5906 5906 5906 5907 5907 5907
5901 5902 5903 5904 5906 5907 5907 5908 5908 5909 5909 5909 5909 5909 5909 5909 5909 5910 5910 5910 5910 5910 5910 5909 5909 5909 5909 5909 5908 5908 5908 5908 5907 5907 5907 5906 5906 5906 5906 5907 5907 5907 5907
5899 5900 5901 5903 5904 5905 5906 5907 5907 5908 5908 5908 5908 5908 5909 5909 5909 5909 5909 5909 5908 5908 5908 5908 5908 5908 5908 5908 5908 5908 5907 5907 5907 5907 5907 5906 5906 5906 5907 5907 5907 5907 5908
5897 5898 5899 5901 5903 5904 5905 5905 5906 5906 5907 5907 5907 5907 5907 5907 5907 5908 5908 5907 5907 5907 5907 5907 5907 5906 5906 5907 5907 5907 5906 5906 5906 5906 5906 5906 5906 5906 5906 5907 5907 5907 5908
5894 5896 5897 5899 5900 5902 5903 5904 5904 5905 5905 5905 5906 5906 5906 5906 5906 5906 5906 5906 5905 5905 5905 5905 5905 5905 5905 5905 5905 5905 5905 5905 5905 5905 5905 5905 5905 5906 5906 5906 5906 5907 5907
5892 5893 5895 5897 5898 5900 5901 5902 5903 5903 5903 5904 5904 5904 5904 5904 5904 5904 5904 5904 5903 5903 5903 5903 5903 5902 5902 5903 5903 5903 5903 5904 5904 5904 5904 5904 5904 5905 5905 5905 5906 5906 5907
5889 5891 5893 5895 5896 5898 5899 5900 5901 5901 5902 5902 5902 5902 5902 5902 5901 5901 5901 5901 5901 5901 5901 5900 5900 5900 5900 5900 5900 5901 5901 5901 5901 5902 5902 5903 5903 5903 5903 5904 5904 5905 5906
5886 5888 5891 5892 5894 5895 5897 5898 5898 5899 5899 5899 5899 5899 5899 5899 5899 5899 5899 5898 5899 5898 5898 5897 5897 5897 5897 5897 5897 5898 5898 5898 5899 5899 5900 5900 5901 5901 5902 5902 5903 5903 5904
5883 5886 5888 5890 5891 5893 5894 5895 5896 5896 5897 5897 5897 5897 5897 5896 5896 5896 5896 5895 5895 5895 5895 5895 5894 5894 5894 5894 5894 5895 5895 5896 5896 5896 5897 5897 5898 5899 5899 5900 5900 5901 5902
5880 5883 5885 5887 5889 5891 5892 5893 5894 5894 5895 5895 5895 5895 5894 5894 5893 5893 5893 5892 5892 5892 5892 5891 5891 5891 5891 5891 5891 5892 5892 5893 5892 5893 5893 5894 5895 5896 5897 5897 5898 5898 5899
5877 5880 5883 5885 5887 5888 5889 5890 5891 5892 5892 5893 5893 5892 5892 5892 5891 5891 5890 5890 5890 5890 5889 5889 5889 5889 5888 5888 5888 5889 5889 5889 5889 5890 5890 5891 5892 5892 5893 5894 5895 5895 5896
5874 5877 5880 5882 5884 5886 5887 5888 5889 5890 5890 5891 5891 5890 5890 5890 5889 5889 5888 5888 5888 5887 5887 5887 5887 5886 5886 5886 5886 5886 5886 5886 5886 5887 5887 5888 5888 5889 5889 5890 5891 5892 5893
5871 5874 5877 5879 5882 5883 5885 5886 5887 5887 5888 5888 5888 5888 5888 5888 5887 5886 5886 5886 5886 5886 5885 5885 5884 5884 5884 5884 5883 5883 5883 5883 5883 5884 5884 5884 5885 5885 5886 5887 5888 5888 5889
5868 5871 5874 5877 5879 5881 5882 5883 5884 5885 5886 5886 5886 5886 5886 5885 5885 5884 5884 5884 5884 5884 5883 5883 5882 5882 5882 5881 5881 5880 5880 5880 5881 5880 5881 5881 5881 5881 5882 5883 5884 5885 5885
5865 5868 5871 5874 5876 5878 5880 5881 5882 5883 5884 5884 5884 5884 5883 5883 5883 5883 5883 5882 5882 5882 5882 5881 5881 5880 5880 5879 5879 5878 5878 5878 5878 5878 5877 5877 5877 5878 5879 5879 5880 5881 5882
5862 5865 5868 5871 5874 5876 5878 5879 5880 5881 5882 5882 5882 5882 5882 5882 5882 5881 5881 5881 5881 5881 5880 5880 5879 5878 5878 5877 5876 5876 5875 5875 5875 5875 5874 5874 5874 5874 5875 5876 5876 5877 5878
5860 5863 5866 5869 5872 5874 5876 5877 5879 5880 5881 5881 5881 5880 5880 5880 5880 5880 5880 5879 5879 5879 5879 5878 5877 5877 5876 5875 5875 5874 5873 5873 5872 5872 5871 5871 5871 5871 5871 5872 5872 5873 5874
5858 5861 5864 5867 5870 5872 5874 5876 5877 5878 5879 5879 5879 5879 5879 5879 5879 5879 5879 5878 5878 5878 5878 5877 5876 5875 5875 5874 5873 5872 5871 5871 5870 5870 5869 5869 5868 5868 5868 5868 5869 5869 5870
5856 5859 5862 5866 5868 5871 5873 5874 5875 5876 5877 5878 5878 5878 5878 5879 5879 5878 5878 5878 5877 5877 5877 5876 5875 5874 5873 5872 5872 5871 5870 5870 5868 5868 5867 5866 5866 5865 5865 5865 5865 5865 5866
5855 5858 5861 5864 5867 5869 5871 5873 5874 5875 5876 5877 5877 5877 5878 5878 5878 5877 5877 5877 5877 5877 5876 5875 5874 5873 5872 5871 5870 5870 5869 5868 5867 5866 5865 5864 5863 5863 5862 5862 5862 5862 5862
5855 5858 5860 5863 5866 5868 5870 5872 5873 5874 5875 5876 5876 5877 5877 5877 5877 5877 5876 5876 5876 5876 5875 5874 5873 5872 5871 5870 5869 5868 5867 5865 5864 5863 5862 5861 5860 5859 5859 5858 5858 5858 5858
5855 5857 5860 5862 5865 5867 5869 5871 5872 5873 5874 5874 5875 5876 5876 5876 5876 5876 5876 5876 5876 5875 5874 5873 5872 5871 5870 5869 5868 5866 5865 5863 5862 5861 5859 5858 5857 5856 5855 5854 5854 5853 5853
5855 5857 5859 5861 5863 5866 5868 5869 5870 5871 5872 5873 5874 5874 5875 5875 5875 5875 5875 5875 5875 5874 5873 5872 5871 5870 5869 5867 5866 5864 5863 5861 5859 5857 5856 5855 5853 5852 5851 5850 5849 5848 5847